Location: Boulin
(43.2500°N, 0.1333°E)
Time: 00:12:54
(UTC+00:00)

Cosmos 1933 - Pass Details

Date: 21 March 2026
Orbit: 507 x 515 km, 82.5° (Epoch: 14 April)

Event Time Altitude Azimuth Distance (km) Brightness Sun altitude
Exits shadow 03:13:18 - 126° (SE) 2,143 6.6 -29.8°
Reaches altitude 10° 03:15:13 10° 103° (ESE) 1,739 6.4 -29.5°
Maximum altitude 03:16:27 11° 85° (E) 1,657 6.5 -29.4°
Drops below altitude 10° 03:17:41 10° 66° (ENE) 1,743 6.8 -29.2°
Sets 03:21:10 0° 31° (NNE) 2,635 7.7 -28.6°
